• In Germany
  • List of Countries
  • For 7 days
  • Water Temperature
  • Satellite Maps
  • Weather Map
  • Weather Widgets
  • user-avatar
    Login

    Hourly Weather Mykhailyuky

    Today, 24 September, Monday

    Time Temperature Precipitation Wind Pressure Humidity
    00:00 +10°C° 0 mm 2 mps 750 mmHg 85%
    01:00 +10°C° 0 mm 2 mps 750 mmHg 86%
    02:00 +9°C° 0 mm 2 mps 750 mmHg 86%
    03:00 +9°C° 0 mm 2 mps 750 mmHg 86%
    04:00 +10°C° 0 mm 1 mps 750 mmHg 86%
    05:00 +10°C° 0 mm 1 mps 750 mmHg 86%
    06:00 +10°C° 0 mm 1 mps 750 mmHg 86%
    07:00 +11°C° 0 mm 1 mps 750 mmHg 78%
    08:00 +13°C° 0 mm 2 mps 750 mmHg 70%
    09:00 +14°C° 0 mm 2 mps 750 mmHg 62%
    10:00 +16°C° 0 mm 3 mps 750 mmHg 55%
    11:00 +17°C° 0 mm 4 mps 750 mmHg 47%
    12:00 +19°C° 0 mm 4 mps 749 mmHg 40%
    13:00 +20°C° 0 mm 5 mps 749 mmHg 36%
    14:00 +20°C° 0 mm 5 mps 748 mmHg 33%
    15:00 +21°C° 0 mm 5 mps 747 mmHg 29%
    16:00 +21°C° 0 mm 5 mps 747 mmHg 31%
    17:00 +20°C° 0 mm 5 mps 746 mmHg 32%
    18:00 +19°C° 0 mm 4 mps 745 mmHg 34%
    19:00 +19°C° 0 mm 5 mps 745 mmHg 37%
    20:00 +17°C° 0 mm 5 mps 744 mmHg 40%
    21:00 +17°C° 0 mm 5 mps 744 mmHg 43%
    22:00 +17°C° 0.1 mm 5 mps 743 mmHg 49%
    23:00 +17°C° 0.1 mm 6 mps 743 mmHg 54%

    Tomorrow, 25 September, Tuesday

    Time Temperature Precipitation Wind Pressure Humidity
    00:00 +17°C° 0.1 mm 6 mps 743 mmHg 60%
    01:00 +17°C° 0.3 mm 6 mps 743 mmHg 67%
    02:00 +16°C° 0.3 mm 6 mps 743 mmHg 74%
    03:00 +16°C° 0.3 mm 7 mps 743 mmHg 81%
    04:00 +14°C° 1.1 mm 7 mps 743 mmHg 81%
    05:00 +13°C° 1.1 mm 6 mps 743 mmHg 82%
    06:00 +10°C° 1.1 mm 6 mps 743 mmHg 82%
    07:00 +10°C° 0.8 mm 6 mps 744 mmHg 78%
    08:00 +11°C° 0.8 mm 6 mps 744 mmHg 75%
    09:00 +11°C° 0.8 mm 6 mps 745 mmHg 72%
    10:00 +13°C° 0 mm 6 mps 745 mmHg 64%
    11:00 +14°C° 0 mm 6 mps 746 mmHg 57%
    12:00 +16°C° 0 mm 5 mps 746 mmHg 49%
    13:00 +16°C° 0 mm 6 mps 746 mmHg 47%
    14:00 +16°C° 0 mm 6 mps 746 mmHg 45%
    15:00 +17°C° 0 mm 6 mps 746 mmHg 43%
    16:00 +16°C° 0.1 mm 6 mps 746 mmHg 47%
    17:00 +15°C° 0.1 mm 6 mps 747 mmHg 51%
    18:00 +13°C° 0.1 mm 5 mps 747 mmHg 54%
    19:00 +12°C° 0.1 mm 5 mps 748 mmHg 58%
    20:00 +12°C° 0.1 mm 4 mps 748 mmHg 62%
    21:00 +11°C° 0.1 mm 3 mps 749 mmHg 67%
    22:00 +10°C° 0 mm 3 mps 750 mmHg 70%
    23:00 +10°C° 0 mm 3 mps 750 mmHg 73%

    Day after tomorrow, 26 September, Wednesday

    Time Temperature Precipitation Wind Pressure Humidity
    00:00 +9°C° 0 mm 3 mps 751 mmHg 76%
    01:00 +9°C° 0 mm 3 mps 751 mmHg 77%
    02:00 +9°C° 0 mm 3 mps 752 mmHg 77%
    03:00 +8°C° 0 mm 2 mps 752 mmHg 78%
    04:00 +8°C° 0 mm 3 mps 753 mmHg 79%
    05:00 +7°C° 0 mm 3 mps 753 mmHg 80%
    06:00 +7°C° 0 mm 3 mps 754 mmHg 80%
    07:00 +8°C° 0 mm 3 mps 754 mmHg 74%
    08:00 +8°C° 0 mm 3 mps 755 mmHg 67%
    09:00 +9°C° 0 mm 3 mps 755 mmHg 60%
    10:00 +10°C° 0 mm 3 mps 756 mmHg 55%
    11:00 +11°C° 0 mm 3 mps 756 mmHg 49%
    12:00 +12°C° 0 mm 3 mps 756 mmHg 43%
    13:00 +13°C° 0 mm 3 mps 756 mmHg 42%
    14:00 +13°C° 0 mm 3 mps 756 mmHg 40%
    15:00 +13°C° 0 mm 3 mps 756 mmHg 38%
    16:00 +13°C° 0 mm 3 mps 756 mmHg 40%
    17:00 +13°C° 0 mm 2 mps 756 mmHg 42%
    18:00 +13°C° 0 mm 2 mps 756 mmHg 43%
    19:00 +12°C° 0 mm 2 mps 757 mmHg 45%
    20:00 +12°C° 0 mm 2 mps 757 mmHg 46%
    21:00 +10°C° 0 mm 2 mps 757 mmHg 48%
    22:00 +10°C° 0 mm 2 mps 757 mmHg 51%
    23:00 +9°C° 0 mm 2 mps 757 mmHg 53%

    27 September, Thursday

    Time Temperature Precipitation Wind Pressure Humidity
    00:00 +8°C° 0 mm 2 mps 757 mmHg 56%
    01:00 +8°C° 0 mm 2 mps 757 mmHg 59%
    02:00 +7°C° 0 mm 2 mps 757 mmHg 62%
    03:00 +7°C° 0 mm 2 mps 757 mmHg 64%
    04:00 +6°C° 0 mm 2 mps 757 mmHg 66%
    05:00 +6°C° 0 mm 2 mps 757 mmHg 67%
    06:00 +5°C° 0 mm 2 mps 757 mmHg 68%
    07:00 +7°C° 0 mm 2 mps 757 mmHg 62%
    08:00 +8°C° 0 mm 3 mps 757 mmHg 55%
    09:00 +8°C° 0 mm 4 mps 757 mmHg 48%
    10:00 +11°C° 0 mm 4 mps 757 mmHg 43%
    11:00 +12°C° 0 mm 5 mps 756 mmHg 38%
    12:00 +13°C° 0 mm 6 mps 756 mmHg 32%
    13:00 +14°C° 0 mm 6 mps 755 mmHg 31%
    14:00 +14°C° 0 mm 6 mps 755 mmHg 29%
    15:00 +15°C° 0 mm 7 mps 754 mmHg 27%
    16:00 +14°C° 0 mm 6 mps 754 mmHg 29%
    17:00 +13°C° 0 mm 5 mps 754 mmHg 31%
    18:00 +13°C° 0 mm 4 mps 754 mmHg 33%
    19:00 +12°C° 0 mm 4 mps 754 mmHg 35%
    20:00 +12°C° 0 mm 4 mps 754 mmHg 36%
    21:00 +11°C° 0 mm 4 mps 754 mmHg 38%
    22:00 +11°C° 0 mm 4 mps 754 mmHg 39%
    23:00 +11°C° 0 mm 4 mps 754 mmHg 41%

    28 September, Friday

    Time Temperature Precipitation Wind Pressure Humidity
    00:00 +10°C° 0 mm 4 mps 753 mmHg 42%
    01:00 +10°C° 0 mm 4 mps 753 mmHg 44%
    02:00 +10°C° 0 mm 4 mps 753 mmHg 45%
    03:00 +10°C° 0 mm 4 mps 753 mmHg 47%
    04:00 +9°C° 0 mm 3 mps 753 mmHg 49%
    05:00 +9°C° 0 mm 3 mps 753 mmHg 50%
    06:00 +9°C° 0 mm 3 mps 753 mmHg 52%
    07:00 +10°C° 0 mm 3 mps 753 mmHg 50%
    08:00 +12°C° 0 mm 3 mps 753 mmHg 47%
    09:00 +13°C° 0 mm 4 mps 753 mmHg 45%
    10:00 +15°C° 0 mm 4 mps 752 mmHg 43%
    11:00 +17°C° 0 mm 5 mps 752 mmHg 41%
    12:00 +20°C° 0 mm 5 mps 752 mmHg 39%
    13:00 +20°C° 0 mm 5 mps 751 mmHg 39%
    14:00 +21°C° 0 mm 5 mps 751 mmHg 39%
    15:00 +22°C° 0 mm 5 mps 751 mmHg 39%
    16:00 +21°C° 0 mm 4 mps 750 mmHg 42%
    17:00 +20°C° 0 mm 4 mps 750 mmHg 46%
    18:00 +19°C° 0 mm 3 mps 750 mmHg 49%
    19:00 +18°C° 0 mm 3 mps 750 mmHg 52%
    20:00 +17°C° 0 mm 3 mps 750 mmHg 55%
    21:00 +16°C° 0 mm 3 mps 750 mmHg 57%
    22:00 +16°C° 0 mm 3 mps 750 mmHg 59%
    23:00 +15°C° 0 mm 2 mps 750 mmHg 62%

    29 September, Saturday

    Time Temperature Precipitation Wind Pressure Humidity
    00:00 +15°C° 0 mm 2 mps 750 mmHg 64%
    01:00 +15°C° 0 mm 2 mps 750 mmHg 66%
    02:00 +14°C° 0 mm 2 mps 750 mmHg 69%
    03:00 +14°C° 0 mm 1 mps 750 mmHg 71%
    04:00 +14°C° 0 mm 1 mps 750 mmHg 74%
    05:00 +13°C° 0 mm 1 mps 750 mmHg 78%
    06:00 +13°C° 0 mm 1 mps 750 mmHg 81%
    07:00 +14°C° 0 mm 1 mps 751 mmHg 76%
    08:00 +16°C° 0 mm 1 mps 751 mmHg 71%
    09:00 +16°C° 0 mm 0 mps 751 mmHg 67%
    10:00 +19°C° 0 mm 1 mps 751 mmHg 63%
    11:00 +20°C° 0 mm 2 mps 751 mmHg 59%
    12:00 +21°C° 0 mm 2 mps 751 mmHg 56%
    13:00 +20°C° 0 mm 3 mps 751 mmHg 57%
    14:00 +20°C° 0 mm 4 mps 751 mmHg 58%
    15:00 +19°C° 0 mm 5 mps 751 mmHg 59%
    16:00 +17°C° 0.1 mm 5 mps 751 mmHg 60%
    17:00 +16°C° 0.1 mm 5 mps 752 mmHg 62%
    18:00 +15°C° 0.1 mm 5 mps 752 mmHg 63%
    19:00 +14°C° 0.1 mm 5 mps 753 mmHg 61%
    20:00 +14°C° 0.1 mm 4 mps 753 mmHg 58%
    21:00 +14°C° 0.1 mm 4 mps 754 mmHg 56%
    22:00 +13°C° 0 mm 5 mps 754 mmHg 56%
    23:00 +12°C° 0 mm 5 mps 755 mmHg 56%
    Show more